Location: Boone Canyon
(38.3180°N, 119.2504°W)
Time: 18:00:18
(UTC+00:00)

ADEOS Rocket - Pass Details

Date: 18 September 2020
Orbit: 858 x 1307 km, 98.7° (Epoch: 19 October)

Event Time Altitude Azimuth Distance (km) Brightness Sun altitude
Rises 12:46:36 0° 178° (S) 4,132 6.2 -11.6°
Reaches altitude 10° 12:49:25 10° 183° (S) 3,117 5.5 -11.0°
Maximum altitude 12:56:21 55° 259° (W) 1,319 3.4 -9.7°
Drops below altitude 10° 13:02:38 10° 337° (NNW) 2,826 5.3 -8.5°
Sets 13:05:05 0° 342° (NNW) 3,720 5.9 -8.0°
